Time,TemperatureF,DewpointF,PressureIn,WindDirection,WindDirectionDegrees,WindSpeedMPH,WindSpeedGustMPH,Humidity,HourlyPrecipIn,Conditions,Clouds,dailyrainin,SoftwareType,DateUTC
2013-06-25 00:00:00,73.0,58.7,0.00,NW,308,0.0,4.0,61,0.00,,,0.00,Weather View 32 v70,2013-06-25 04:00:00,
2013-06-25 00:08:00,73.0,58.7,0.00,NW,308,0.0,4.0,61,0.00,,,0.00,Weather View 32 v70,2013-06-25 04:08:00,
2013-06-25 00:15:00,73.0,58.3,0.00,WSW,245,0.0,4.0,60,0.00,,,0.00,Weather View 32 v70,2013-06-25 04:15:00,
2013-06-25 00:30:00,73.0,58.3,0.00,SSW,208,0.0,0.0,60,0.00,,,0.00,Weather View 32 v70,2013-06-25 04:30:00,
2013-06-25 00:45:00,73.0,57.8,0.00,SSE,159,0.0,0.0,59,0.00,,,0.00,Weather View 32 v70,2013-06-25 04:45:00,
2013-06-25 01:00:00,73.0,57.8,0.00,SSE,159,0.0,0.0,59,0.00,,,0.00,Weather View 32 v70,2013-06-25 05:00:00,
2013-06-25 01:09:00,73.0,57.8,0.00,SSE,159,0.0,0.0,59,0.00,,,0.00,Weather View 32 v70,2013-06-25 05:09:00,
2013-06-25 01:15:00,72.7,57.9,0.00,SSE,159,0.0,0.0,60,0.00,,,0.00,Weather View 32 v70,2013-06-25 05:15:00,
2013-06-25 01:30:00,72.7,57.9,0.00,WNW,292,0.0,0.0,60,0.00,,,0.00,Weather View 32 v70,2013-06-25 05:30:00,
2013-06-25 01:45:00,72.7,57.9,0.00,WNW,292,0.0,0.0,60,0.00,,,0.00,Weather View 32 v70,2013-06-25 05:45:00,
2013-06-25 02:00:00,72.5,58.7,0.00,WNW,292,0.0,0.0,62,0.00,,,0.00,Weather View 32 v70,2013-06-25 06:00:00,
2013-06-25 02:09:00,72.5,58.7,0.00,WNW,292,0.0,0.0,62,0.00,,,0.00,Weather View 32 v70,2013-06-25 06:09:00,
2013-06-25 02:15:00,72.3,59.0,0.00,WNW,292,0.0,0.0,63,0.00,,,0.00,Weather View 32 v70,2013-06-25 06:15:00,
2013-06-25 02:30:00,72.1,59.2,0.00,WNW,292,0.0,0.0,64,0.00,,,0.00,Weather View 32 v70,2013-06-25 06:30:00,
2013-06-25 02:45:00,71.6,59.6,0.00,WNW,292,0.0,0.0,66,0.00,,,0.00,Weather View 32 v70,2013-06-25 06:45:00,
2013-06-25 03:00:00,71.1,59.9,0.00,WNW,292,0.0,0.0,68,0.00,,,0.00,Weather View 32 v70,2013-06-25 07:00:00,
2013-06-25 03:15:00,70.9,59.8,0.00,WNW,292,0.0,0.0,68,0.00,,,0.00,Weather View 32 v70,2013-06-25 07:15:00,
2013-06-25 03:30:00,70.7,60.4,0.00,WNW,292,0.0,0.0,70,0.00,,,0.00,Weather View 32 v70,2013-06-25 07:30:00,
2013-06-25 03:45:00,70.3,60.5,0.00,WNW,292,0.0,0.0,71,0.00,,,0.00,Weather View 32 v70,2013-06-25 07:45:00,
2013-06-25 04:00:00,70.3,60.9,0.00,WNW,292,0.0,0.0,72,0.00,,,0.00,Weather View 32 v70,2013-06-25 08:00:00,
2013-06-25 04:15:00,70.0,61.3,0.00,WNW,292,0.0,0.0,74,0.00,,,0.00,Weather View 32 v70,2013-06-25 08:15:00,
2013-06-25 04:30:00,69.8,61.1,0.00,WNW,292,0.0,0.0,74,0.00,,,0.00,Weather View 32 v70,2013-06-25 08:30:00,
2013-06-25 04:45:00,69.4,61.5,0.00,WNW,292,0.0,0.0,76,0.00,,,0.00,Weather View 32 v70,2013-06-25 08:45:00,
2013-06-25 05:00:00,69.4,62.3,0.00,WNW,292,0.0,0.0,78,0.00,,,0.00,Weather View 32 v70,2013-06-25 09:00:00,
2013-06-25 05:15:00,69.3,62.4,0.00,WNW,292,0.0,0.0,79,0.00,,,0.00,Weather View 32 v70,2013-06-25 09:15:00,
2013-06-25 05:30:00,69.1,62.6,0.00,WNW,292,0.0,0.0,80,0.00,,,0.00,Weather View 32 v70,2013-06-25 09:30:00,
2013-06-25 05:45:00,68.9,62.8,0.00,WNW,292,0.0,0.0,81,0.00,,,0.00,Weather View 32 v70,2013-06-25 09:45:00,
2013-06-25 06:00:00,68.9,62.8,0.00,WNW,292,0.0,0.0,81,0.00,,,0.00,Weather View 32 v70,2013-06-25 10:00:00,
2013-06-25 06:15:00,68.7,63.3,0.00,WNW,292,0.0,0.0,83,0.00,,,0.00,Weather View 32 v70,2013-06-25 10:15:00,
2013-06-25 06:30:00,69.1,64.0,0.00,WNW,292,0.0,0.0,84,0.00,,,0.00,Weather View 32 v70,2013-06-25 10:30:00,
2013-06-25 06:45:00,69.3,63.9,0.00,WNW,292,0.0,0.0,83,0.00,,,0.00,Weather View 32 v70,2013-06-25 10:45:00,
2013-06-25 07:00:00,69.6,64.2,0.00,WNW,292,0.0,0.0,83,0.00,,,0.00,Weather View 32 v70,2013-06-25 11:00:00,
2013-06-25 07:15:00,70.0,64.2,0.00,WNW,292,0.0,0.0,82,0.00,,,0.00,Weather View 32 v70,2013-06-25 11:15:00,
2013-06-25 07:30:00,70.7,64.6,0.00,WNW,292,0.0,0.0,81,0.00,,,0.00,Weather View 32 v70,2013-06-25 11:30:00,
2013-06-25 07:45:00,71.4,64.9,0.00,SSW,200,0.0,0.0,80,0.00,,,0.00,Weather View 32 v70,2013-06-25 11:45:00,
2013-06-25 08:00:00,72.0,63.2,0.00,West,273,0.0,0.0,74,0.00,,,0.00,Weather View 32 v70,2013-06-25 12:00:00,
2013-06-25 08:15:00,73.0,63.8,0.00,West,259,0.0,0.0,73,0.00,,,0.00,Weather View 32 v70,2013-06-25 12:15:00,
2013-06-25 08:30:00,73.9,61.8,0.00,West,269,2.0,4.0,66,0.00,,,0.00,Weather View 32 v70,2013-06-25 12:30:00,
2013-06-25 08:45:00,75.4,62.8,0.00,WNW,288,0.0,5.0,65,0.00,,,0.00,Weather View 32 v70,2013-06-25 12:45:00,
2013-06-25 09:00:00,77.2,62.6,0.00,NNW,340,0.0,5.0,61,0.00,,,0.00,Weather View 32 v70,2013-06-25 13:00:00,
2013-06-25 09:15:00,78.6,62.1,0.00,SSW,193,3.0,5.0,57,0.00,,,0.00,Weather View 32 v70,2013-06-25 13:15:00,
2013-06-25 09:30:00,79.9,62.7,0.00,SW,219,0.0,5.0,56,0.00,,,0.00,Weather View 32 v70,2013-06-25 13:30:00,
2013-06-25 09:45:00,81.1,62.9,0.00,SW,230,0.0,5.0,54,0.00,,,0.00,Weather View 32 v70,2013-06-25 13:45:00,
2013-06-25 10:00:00,82.2,63.3,0.00,SW,230,0.0,5.0,53,0.00,,,0.00,Weather View 32 v70,2013-06-25 14:00:00,
2013-06-25 10:15:00,83.3,61.5,0.00,North,0,0.0,5.0,48,0.00,,,0.00,Weather View 32 v70,2013-06-25 14:15:00,
2013-06-25 10:30:00,84.0,61.5,0.00,WSW,244,0.0,5.0,47,0.00,,,0.00,Weather View 32 v70,2013-06-25 14:30:00,
2013-06-25 10:45:00,84.9,61.8,0.00,WNW,303,0.0,5.0,46,0.00,,,0.00,Weather View 32 v70,2013-06-25 14:45:00,
2013-06-25 11:00:00,85.6,62.4,0.00,West,275,3.0,5.0,46,0.00,,,0.00,Weather View 32 v70,2013-06-25 15:00:00,
2013-06-25 11:15:00,86.4,63.1,0.00,West,270,3.0,5.0,46,0.00,,,0.00,Weather View 32 v70,2013-06-25 15:15:00,
2013-06-25 11:30:00,87.3,60.6,0.00,South,174,2.0,5.0,41,0.00,,,0.00,Weather View 32 v70,2013-06-25 15:30:00,
2013-06-25 11:45:00,87.3,56.2,0.00,WNW,286,3.0,5.0,35,0.00,,,0.00,Weather View 32 v70,2013-06-25 15:45:00,
2013-06-25 12:00:00,87.6,55.7,0.00,West,279,3.0,6.0,34,0.00,,,0.00,Weather View 32 v70,2013-06-25 16:00:00,
2013-06-25 12:15:00,87.8,55.0,0.00,West,260,4.0,6.0,33,0.00,,,0.00,Weather View 32 v70,2013-06-25 16:15:00,
2013-06-25 12:30:00,88.2,57.7,0.00,West,260,2.0,6.0,36,0.00,,,0.00,Weather View 32 v70,2013-06-25 16:30:00,
2013-06-25 12:45:00,87.6,55.7,0.00,WSW,250,3.0,8.0,34,0.00,,,0.00,Weather View 32 v70,2013-06-25 16:45:00,
2013-06-25 13:00:00,88.5,55.6,0.00,SSE,152,4.0,11.0,33,0.00,,,0.00,Weather View 32 v70,2013-06-25 17:00:00,
2013-06-25 13:15:00,88.7,54.1,0.00,SSW,210,5.0,11.0,31,0.00,,,0.00,Weather View 32 v70,2013-06-25 17:15:00,
2013-06-25 13:30:00,88.9,52.4,0.00,West,265,5.0,11.0,29,0.00,,,0.00,Weather View 32 v70,2013-06-25 17:30:00,
2013-06-25 13:45:00,88.3,52.9,0.00,NW,311,6.0,11.0,30,0.00,,,0.00,Weather View 32 v70,2013-06-25 17:45:00,
2013-06-25 14:00:00,89.2,53.6,0.00,East,84,2.0,10.0,30,0.00,,,0.00,Weather View 32 v70,2013-06-25 18:00:00,
2013-06-25 14:15:00,89.4,53.8,0.00,NW,325,2.0,11.0,30,0.00,,,0.00,Weather View 32 v70,2013-06-25 18:15:00,
2013-06-25 14:30:00,89.4,53.8,0.00,WSW,248,4.0,11.0,30,0.00,,,0.00,Weather View 32 v70,2013-06-25 18:30:00,
2013-06-25 14:45:00,88.7,54.9,0.00,WSW,245,3.0,14.0,32,0.00,,,0.00,Weather View 32 v70,2013-06-25 18:45:00,
2013-06-25 15:00:00,88.7,53.2,0.00,SSE,160,3.0,14.0,30,0.00,,,0.00,Weather View 32 v70,2013-06-25 19:00:00,
2013-06-25 15:15:00,88.9,56.0,0.00,West,277,4.0,14.0,33,0.00,,,0.00,Weather View 32 v70,2013-06-25 19:15:00,
2013-06-25 15:30:00,88.7,55.8,0.00,WSW,239,8.0,14.0,33,0.00,,,0.00,Weather View 32 v70,2013-06-25 19:30:00,
2013-06-25 15:45:00,88.7,57.4,0.00,WSW,248,4.0,10.0,35,0.00,,,0.00,Weather View 32 v70,2013-06-25 19:45:00,
2013-06-25 16:00:00,87.1,56.8,0.00,SW,215,3.0,10.0,36,0.00,,,0.00,Weather View 32 v70,2013-06-25 20:00:00,
2013-06-25 16:15:00,86.4,56.2,0.00,WSW,237,3.0,11.0,36,0.00,,,0.00,Weather View 32 v70,2013-06-25 20:15:00,
2013-06-25 16:30:00,85.1,57.3,0.00,SW,231,4.0,11.0,39,0.00,,,0.00,Weather View 32 v70,2013-06-25 20:30:00,
2013-06-25 16:45:00,84.6,58.2,0.00,East,79,4.0,11.0,41,0.00,,,0.00,Weather View 32 v70,2013-06-25 20:45:00,
2013-06-25 17:00:00,83.5,58.5,0.00,WNW,286,5.0,11.0,43,0.00,,,0.00,Weather View 32 v70,2013-06-25 21:00:00,
2013-06-25 17:15:00,82.6,57.7,0.00,West,274,6.0,11.0,43,0.00,,,0.00,Weather View 32 v70,2013-06-25 21:15:00,
2013-06-25 17:30:00,82.8,57.9,0.00,WSW,248,4.0,9.0,43,0.00,,,0.00,Weather View 32 v70,2013-06-25 21:30:00,
2013-06-25 17:45:00,82.9,58.1,0.00,West,276,3.0,9.0,43,0.00,,,0.00,Weather View 32 v70,2013-06-25 21:45:00,
2013-06-25 18:00:00,84.7,59.7,0.00,SW,228,3.0,6.0,43,0.00,,,0.00,Weather View 32 v70,2013-06-25 22:00:00,
2013-06-25 18:15:00,85.3,59.5,0.00,SW,230,2.0,6.0,42,0.00,,,0.00,Weather View 32 v70,2013-06-25 22:15:00,
2013-06-25 18:30:00,84.9,59.8,0.00,SSW,202,0.0,6.0,43,0.00,,,0.00,Weather View 32 v70,2013-06-25 22:30:00,
2013-06-25 18:45:00,84.4,60.6,0.00,WSW,241,3.0,6.0,45,0.00,,,0.00,Weather View 32 v70,2013-06-25 22:45:00,
2013-06-25 19:00:00,83.8,60.8,0.00,WSW,249,4.0,7.0,46,0.00,,,0.00,Weather View 32 v70,2013-06-25 23:00:00,
2013-06-25 19:15:00,83.7,58.1,0.00,West,270,3.0,7.0,42,0.00,,,0.00,Weather View 32 v70,2013-06-25 23:15:00,
2013-06-25 19:30:00,82.8,56.6,0.00,WNW,299,4.0,8.0,41,0.00,,,0.00,Weather View 32 v70,2013-06-25 23:30:00,
2013-06-25 19:45:00,82.4,55.6,0.00,WNW,288,3.0,8.0,40,0.00,,,0.00,Weather View 32 v70,2013-06-25 23:45:00,
2013-06-25 20:00:00,82.0,56.6,0.00,WSW,252,3.0,9.0,42,0.00,,,0.00,Weather View 32 v70,2013-06-26 00:00:00,
2013-06-25 20:15:00,81.7,56.3,0.00,WSW,244,4.0,9.0,42,0.00,,,0.00,Weather View 32 v70,2013-06-26 00:15:00,
2013-06-25 20:30:00,81.3,56.6,0.00,NNE,12,3.0,9.0,43,0.00,,,0.00,Weather View 32 v70,2013-06-26 00:30:00,
2013-06-25 20:45:00,80.8,56.1,0.00,West,277,6.0,9.0,43,0.00,,,0.00,Weather View 32 v70,2013-06-26 00:45:00,
2013-06-25 21:00:00,80.6,56.0,0.00,WSW,251,3.0,8.0,43,0.00,,,0.00,Weather View 32 v70,2013-06-26 01:00:00,
2013-06-25 21:15:00,80.4,56.4,0.00,West,265,3.0,10.0,44,0.00,,,0.00,Weather View 32 v70,2013-06-26 01:15:00,
2013-06-25 21:20:00,80.4,56.4,0.00,West,265,3.0,10.0,44,0.00,,,0.00,Weather View 32 v70,2013-06-26 01:20:00,
2013-06-25 21:30:00,80.1,56.1,0.00,WNW,300,4.0,10.0,44,0.00,,,0.00,Weather View 32 v70,2013-06-26 01:30:00,
2013-06-25 21:45:00,79.7,57.0,0.00,SW,227,0.0,10.0,46,0.00,,,0.00,Weather View 32 v70,2013-06-26 01:45:00,
2013-06-25 22:00:00,79.2,57.1,0.00,SW,218,0.0,10.0,47,0.00,,,0.00,Weather View 32 v70,2013-06-26 02:00:00,
2013-06-25 22:15:00,78.8,57.4,0.00,West,262,3.0,8.0,48,0.00,,,0.00,Weather View 32 v70,2013-06-26 02:15:00,
2013-06-25 22:21:00,78.8,57.4,0.00,West,262,3.0,8.0,48,0.00,,,0.00,Weather View 32 v70,2013-06-26 02:21:00,
2013-06-25 22:30:00,78.8,57.4,0.00,West,267,2.0,8.0,48,0.00,,,0.00,Weather View 32 v70,2013-06-26 02:30:00,
2013-06-25 22:45:00,78.6,57.8,0.00,West,274,3.0,8.0,49,0.00,,,0.00,Weather View 32 v70,2013-06-26 02:45:00,
2013-06-25 23:00:00,78.4,58.2,0.00,West,271,3.0,8.0,50,0.00,,,0.00,Weather View 32 v70,2013-06-26 03:00:00,
2013-06-25 23:15:00,78.8,57.4,0.00,WNW,288,3.0,8.0,48,0.00,,,0.00,Weather View 32 v70,2013-06-26 03:15:00,
2013-06-25 23:21:00,78.8,57.4,0.00,WNW,288,3.0,8.0,48,0.00,,,0.00,Weather View 32 v70,2013-06-26 03:21:00,
2013-06-25 23:30:00,78.4,57.6,0.00,NE,47,4.0,11.0,49,0.00,,,0.00,Weather View 32 v70,2013-06-26 03:30:00,
2013-06-25 23:45:00,77.7,59.2,0.00,WSW,252,0.0,11.0,53,0.00,,,0.00,Weather View 32 v70,2013-06-26 03:45:00,